Location: Gilevgi
(36.8751°N, 30.0581°E)
Time: 04:16:53
(UTC+00:00)

NOSS 2-3 (D) - Pass Details

Date: 11 December 2025
Orbit: 497 x 1701 km, 63.3° (Epoch: 24 April)

Event Time Altitude Azimuth Distance (km) Brightness Sun altitude
Rises 15:06:52 0° 204° (SSW) 2,762 7.7 -5.0°
Reaches altitude 10° 15:09:11 10° 200° (SSW) 1,783 6.7 -5.4°
Maximum altitude 15:12:58 62° 120° (ESE) 568 3.2 -6.1°
Drops below altitude 10° 15:16:36 10° 39° (NE) 1,707 5.3 -6.8°
Enters shadow 15:17:27 - 37° (NE) 2,063 5.7 -6.9°
